Regional Weather Roundup
Issued by NWS

Home | Current Version | Previous Version | Text Only | Print | Product List | Glossary Off
Versions: 1 2 3 4 5 6 7 8 9 10 11 12 13 14 15 16 17 18 19 20 21 22 23 24 25 26 27 28 29 30 31 32 33 34 35 36 37 38 39 40 41 42 43 44 45 46 47 48 49 50

428
ASUS43 KLMK 241310
RWRKY
KENTUCKY REGIONAL WEATHER ROUNDUP
NATIONAL WEATHER SERVICE LOUISVILLE KY
900 AM EDT MON JUL 24 2017

NOTE "FAIR" INDICATES FEW OR NO CLOUDS BELOW 12,000 FEET
WITH NO SIGNIFICANT WEATHER AND/OR OBSTRUCTIONS TO VISIBILITY.

KYZ001>023-026-027-061>063-070>075-241400-
WESTERN AND SOUTH CENTRAL KENTUCKY

CITY           SKY/WX    TMP DP  RH WIND       PRES   REMARKS
PADUCAH        CLOUDY    75  71  87 VRB3      29.93R
HENDERSON      MOSUNNY   76  73  91 S3        29.94R
OWENSBORO      MOSUNNY   75  72  90 VRB3      29.94R
HOPKINSVILLE   CLOUDY    75  71  88 SW6       29.95R
BOWLING GREEN  MOSUNNY   75  73  93 W3        29.95S
GLASGOW        FOG       71  71 100 CALM      29.96R VSB 1
$$

KYZ024-025-028>034-038-045-046-053-241400-
NORTH CENTRAL KENTUCKY

CITY           SKY/WX    TMP DP  RH WIND       PRES   REMARKS
LOUISVILLE/SDF MOSUNNY   80  72  76 W5        29.92R
LOUISVILLE/LOU SUNNY     79  73  82 W5        29.93R
FORT KNOX      CLOUDY    76  71  86 SW7       29.93R
$$

KYZ035>037-039>044-047>052-055>060-089>105-241400-
NORTHEAST KENTUCKY

CITY           SKY/WX    TMP DP  RH WIND       PRES   REMARKS
LEXINGTON      SUNNY     76  70  82 SW5       29.94S
COVINGTON      MOSUNNY   74  72  93 W12       29.92R
FRANKFORT      MOSUNNY   76  71  85 SW5       29.93R
$$

KYZ054-064>069-076>088-106>120-241400-
SOUTHEAST KENTUCKY

CITY           SKY/WX    TMP DP  RH WIND       PRES   REMARKS
JACKSON        PTSUNNY   73  70  90 VRB3      29.97S
LONDON         CLOUDY    72  68  87 VRB3      29.99R
SOMERSET       SUNNY     72  68  88 W6        29.98S
MIDDLESBORO    CLOUDY    69  69 100 CALM      30.00R
MONTICELLO     MOSUNNY   73  70  90 NE8       30.00R
$$





USA.gov is the U.S. government's official web portal to all federal, state and local government web resources and services.